Back to catalog

STARLINK-31197

AliveCommunicationsVLEO
NORAD 58859·PAYLOAD·🇺🇸 United States

Launched Jan 29, 2024 from Cape Canaveral Space Force Station

Loading…

Next Passes (next 24 hours)

TLE

FreshSource: CelesTrak SupGP

Epoch: Sep 14, 2026, 21:29 UTC

1 58859C 24019G   26257.89562500  .00030419  00000+0  11021-2 0  2578
2 58859  43.0006 260.6794 0001581 267.1151 164.5296 15.27555108    15

Track STARLINK-31197 in real time with AllMySat

Download on the App Store